Location: *
(5.5876°S, 104.3808°E)
Time: 11:48:04
(UTC+00:00)

Daily predictions for brighter satellites

Satellite Brightness Start Highest point End
(mag) Time Altitude Azimuth Time Altitude Azimuth Time Altitude Azimuth
COSMOS 2455 4.2 12:03:22 10° NW 12:08:52 38° WSW 12:14:24 10° S
FALCON 9 R/B 1.3 12:08:32 10° NNW 12:10:54 30° NNE 12:10:54 30° NNE
CZ-2C R/B 2.7 12:07:13 10° NNE 12:12:17 51° ESE 12:17:30 10° S
Cosmos 1959 Rocket 4.4 12:06:52 10° S 12:13:01 65° E 12:19:12 10° NNE
RESURS DK-1 4.2 12:09:41 10° NW 12:13:21 31° WSW 12:17:02 10° S
BLOCK DM-SL R/B 3.0 12:11:26 10° WNW 12:14:19 49° NNE 12:19:31 21° E
Cosmos 1833 Rocket 2.6 12:09:08 10° S 12:14:39 58° ESE 12:20:07 10° NNE
CZ-4C R/B 3.3 12:07:33 10° NNW 12:16:05 80° WSW 12:24:21 10° SSE
NOSS 3-2 (A) 3.5 12:12:44 10° S 12:17:49 37° ESE 12:19:45 28° ENE
Cosmos 1656 Rocket 4.1 12:14:37 10° N 12:19:48 40° ENE 12:21:16 34° ESE
Cosmos 1867 3.5 12:20:58 10° SSW 12:26:17 60° ESE 12:31:35 10° NNE
Cosmos 1943 Rocket 3.7 12:25:40 10° NW 12:30:38 35° WSW 12:35:36 10° S
GPS 2-14 Rocket1 3.4 12:31:25 10° W 12:35:20 42° SSW 12:35:29 41° SSW
DMSP B5D2-2 4.0 12:31:25 10° N 12:36:40 87° WNW 12:41:58 10° SSW
Cosmos 2366 rocket 4.3 12:35:31 10° SSW 12:41:49 67° W 12:48:01 10° N
Cosmos 614 Rocket 4.4 12:42:50 10° SSW 12:47:50 61° WNW 12:52:51 10° N
YAOGAN 1 4.5 12:48:27 10° SSW 12:52:09 28° WSW 12:55:50 10° NW
Cosmos 1110 Rocket 4.3 12:54:10 10° NNW 12:59:22 62° WSW 13:00:14 54° SW
Cosmos 2082 Rocket 2.5 13:01:17 10° SSW 13:12:06 13° N 13:12:41 10° N
CZ-2C R/B 3.8 13:05:58 38° SSW 13:07:24 48° WSW 13:12:13 10° NNW
Ariane H10 4.4 13:08:51 10° W 13:09:37 15° W 13:09:37 15° W
USA 238 DEB 3.9 13:06:07 10° SSW 13:12:38 64° WNW 13:19:05 10° NNE
USA 238 3.8 13:06:15 10° SSW 13:12:45 65° WNW 13:19:12 10° NNE
ATLAS 5 CENTAUR R/B 2.6 13:10:05 10° WNW 13:12:35 35° NNW 13:12:35 35° NNW
ARGOS 4.3 13:24:51 39° NW 13:24:51 39° NW 13:28:18 10° NNW
Milstar 3 4.2 13:28:13 10° WNW 13:37:27 62° SSW 13:40:04 55° SSE
H-2A R/B 4.0 13:40:29 26° W 13:40:29 26° W 13:44:30 10° NW
Ariane H10-3 4.3 12:46:03 10° W 13:55:01 75° NNW 13:55:01 75° NNW
H-2A ROCKET BODY 4.4 14:26:05 10° WNW 15:18:27 18° ESE 15:42:55 10° ESE
Ariane H10+ 3.6 21:09:05 55° N 21:09:13 55° N 21:16:22 10° E
Cosmos 2315 Rocket 4.0 21:08:26 58° SSE 21:09:43 78° E 21:15:59 10° N
ARIANE 5 R/B 4.5 21:10:22 38° N 21:10:35 38° NNE 21:17:51 10° E
CZ-3A R/B 3.8 21:13:13 19° SSE 21:13:13 19° SSE 21:17:11 10° SE
SWIFT 4.0 21:24:16 25° N 21:24:16 25° N 21:26:44 10° NE
Maqsat-B 3.4 21:26:31 53° WSW 21:28:02 78° S 21:31:52 10° E
Cosmos 1603 4.2 21:23:23 10° N 21:28:55 58° ENE 21:34:25 10° SSE
METEOR-M 4.1 21:24:39 10° NNE 21:29:59 80° ESE 21:32:50 29° S
SEDSat Delta rocket 3.9 21:30:43 56° W 21:32:09 74° NNW 21:38:57 10° NE
DELTA 2 R/B (1) 4.2 21:35:28 38° NW 21:35:33 38° NW 21:40:42 10° NNE
Maqsat-H 2.4 21:33:53 43° WSW 21:36:19 79° S 21:40:11 10° E
ASTRO E2 2.7 21:37:39 75° NE 21:37:39 75° NE 21:41:18 10° ENE
CZ-3 R/B 4.1 21:31:14 30° WSW 21:40:48 39° SW 21:50:10 10° SSE
Skynet4D Del rocket 4.4 21:36:50 34° WNW 21:40:53 80° SSW 21:49:20 10° ESE
CZ-4B R/B 2.9 21:37:13 10° NNE 21:41:34 87° ESE 21:43:00 41° S
TSX-5 4.0 21:42:50 54° NW 21:42:50 54° NW 21:45:53 10° N
CZ-4B R/B 2.4 21:41:48 10° SSE 21:45:09 48° E 21:48:25 10° N
DELTA 2 R/B(2) 4.4 21:47:08 75° WSW 21:47:24 85° NW 21:50:30 10° NE
H-2A R/B 3.4 21:44:57 10° NNE 21:48:36 43° ESE 21:52:21 10° S
NOSS 3-4 (A) 3.3 21:46:20 20° SSW 21:50:44 87° ESE 21:56:37 10° NNE
NOSS 3-4 (C) 3.3 21:46:23 20° SSW 21:50:52 85° ESE 21:56:45 10° NNE
CZ-3B R/B 4.2 21:39:49 10° NW 21:51:16 36° NNE 21:55:29 10° E
CZ-3C R/B 2.1 21:52:21 23° SE 21:52:21 23° SE 21:53:17 10° SE
Cosmos 1943 3.2 21:48:30 10° NNW 21:54:07 86° ENE 21:59:47 10° SSE
Ariane H10+ 4.1 21:57:23 29° W 22:00:17 84° N 22:32:50 10° E
Cosmos 1400 Rocket 2.7 21:56:42 12° S 22:00:26 86° W 22:04:23 10° N
ARIANE 44L R/B 3.7 21:59:37 19° NW 22:01:21 35° NNE 22:08:55 10° E
FUSE 4.1 21:59:37 32° W 22:01:45 52° SSW 22:06:56 10° SE
ALOS 3.0 21:58:41 10° NNW 22:02:45 30° W 22:03:15 30° W
Cosmos 1689 Rocket 4.1 22:02:54 10° SE 22:05:33 30° E 22:08:10 10° NNE
Meteor 2-10 Rocket 3.4 22:00:58 10° SSW 22:05:52 56° W 22:10:48 10° N
Lacrosse 5 rocket 2.7 22:10:21 22° WNW 22:11:00 23° WNW 22:14:32 10° N
ATLAS 2AS CENTAUR R/B 2.9 22:06:35 10° SSW 22:13:51 70° WNW 22:21:38 10° NNE
Centaur D-1A AC-31 2.5 22:13:31 20° SW 22:15:08 26° SSW 22:20:46 10° SE
Ariane 42L Rocket 0.6 22:15:49 52° ESE 22:15:49 52° ESE 22:16:47 10° E
PSLV R/B 3.6 22:16:40 10° N 22:20:23 64° WNW 22:24:04 10° SSW
Cosmos 1953 Rocket 4.5 22:17:57 10° NW 22:21:41 27° W 22:25:24 10° SSW
H-2A R/B 3.2 22:18:11 10° NNE 22:22:00 63° ESE 22:25:47 10° S
Cosmos 1315 Rocket 3.9 22:18:38 10° S 22:22:33 47° E 22:26:28 10° NNE
COSMO-SKYMED 1 4.5 22:19:11 10° SE 22:23:07 34° E 22:27:03 10° NNE
ASTEX 1 3.5 22:18:41 10° N 22:23:25 51° W 22:28:14 10° SSW
CZ-4B R/B 4.2 22:20:15 10° NNE 22:25:40 51° ESE 22:31:10 10° S
Palapa B4 Rocket 3.6 22:23:04 16° W 22:26:27 42° NNW 22:30:04 10° NE
Cosmos 2278 Rocket 3.0 22:24:58 11° SW 22:29:35 30° WNW 22:34:29 10° NNW
ASC 2 Rocket 3.5 22:25:28 10° WNW 22:29:37 68° NNE 22:35:00 10° ESE
Okean O Rocket 2.6 22:26:10 10° NNE 22:30:27 49° ESE 22:34:46 10° S
Cosmos 1892 3.2 22:27:24 10° N 22:31:08 62° E 22:34:54 10° SSE
CREW DRAGON DEMO-1 DEB 3.0 22:29:04 10° SSW 22:32:07 69° SE 22:35:09 10° NE
Cosmos-2242 3.0 22:28:12 10° SSW 22:32:28 62° W 22:36:43 10° N
BREEZE-M DEB (TANK) 3.5 22:31:25 14° WSW 22:34:19 47° NW 22:42:34 10° NNE
Cosmos 494 Rocket 4.0 22:35:01 10° NNW 22:40:10 69° WSW 22:45:24 10° S
ERBS 3.8 22:38:34 10° W 22:40:48 17° WSW 22:43:03 10° SSW
Ariane H10 2.3 22:39:13 11° W 22:41:38 81° N 22:47:51 10° E
GPS 2-14 Rocket1 3.9 22:39:33 10° W 22:42:49 28° NNW 22:46:06 10° NE
GPS 2-04 Rocket1 3.7 22:45:14 10° W 22:48:23 28° NW 22:51:38 10° NNE
ARIANE 5 R/B 4.2 14:39:09 10° W 22:55:48 78° N 23:01:30 10° E
